Location: Pedimozza
(42.0500°N, 9.3500°E)
Time: 11:46:43
(UTC+00:00)

Okean 1 - Pass Details

Date: 19 August 2019
Orbit: 538 x 557 km, 82.5° (Epoch: 19 September)

Event Time Altitude Azimuth Distance (km) Brightness Sun altitude
Rises 19:11:12 0° 358° (N) 2,705 7.3 -10.0°
Reaches altitude 10° 19:13:26 10° 4° (N) 1,807 6.3 -10.4°
Maximum altitude 19:17:16 46° 79° (ENE) 727 3.6 -11.0°
Enters shadow 19:20:40 13° 151° (SSE) 1,633 5.2 -11.5°
